[[{"header":{"parameterUnit":"m.s-1","parameterCategory":1,"la1":30.2991,"la2":30.254,"lo1":-89.0895,"lo2":-89.0444,"dy":0.0017,"dx":0.0017,"nx":28,"ny":28,"refTime":"2024-12-25T09:00:00:Z","depth":0,"parameterNumber":2,"parameterNumberName":"U-component_of_WINDS"},"data":[0,0,0,0,0,0,0,0,0,0,0,0,0,0,0,0,0,0,0,0,0,0,0,0,0,0,0,0,0,0,0,0,0,0,0,0,0,0,0,0,0,0,0,0,0,0,0,0,0,0,0,0,0,0,0,0,0,0,-6.6346,-6.6347,0,-6.6413,-6.6414,-6.6415,-6.6286,-6.6282,-6.6278,-6.6274,-6.6343,-6.6348,-6.6354,0,0,0,0,0,0,0,0,0,0,0,0,0,-6.6106,-6.6111,-6.6346,-6.6347,-6.6348,-6.6413,-6.6414,-6.6415,-6.6287,-6.6282,-6.6277,-6.6272,-6.6341,-6.6347,-6.6354,0,0,0,0,0,0,0,0,0,0,0,0,0,-6.6196,-6.6113,-6.6346,-6.6292,-6.6287,-6.6413,-6.6414,-6.6415,-6.6288,-6.6282,-6.6275,-6.6269,-6.6338,-6.6347,-6.6355,-6.6537,0,0,-6.6382,-6.6386,0,0,0,0,0,0,0,0,-6.6191,-6.6204,-6.6299,-6.6296,-6.6291,-6.6335,-6.6354,-6.6456,-6.629,-6.6288,-6.6273,-6.6266,-6.6345,-6.6353,-6.6379,-6.654,-6.6543,-6.6383,-6.6388,-6.6392,-6.6394,0,0,0,0,0,0,0,-6.6185,-6.6201,-6.6372,-6.63,-6.6296,-6.6264,-6.6269,-6.6373,-6.6351,-6.6287,-6.6278,-6.6288,-6.6342,-6.6371,-6.638,-6.6544,-6.6382,-6.639,-6.6396,-6.6399,-6.6854,-6.6861,0,0,0,0,0,0,-6.6185,-6.6197,-6.637,-6.6374,-6.6224,-6.6273,-6.628,-6.6327,-6.635,-6.6347,-6.6293,-6.6282,-6.636,-6.637,-6.6382,-6.6593,-6.6392,-6.64,-6.6405,-6.6847,-6.6856,-6.6863,0,0,0,0,0,0,-6.6181,-6.6202,-6.6368,-6.6283,-6.6302,-6.6284,-6.6339,-6.6332,-6.6361,-6.6354,-6.635,-6.6328,-6.6355,-6.637,-6.6499,-6.6594,-6.6404,-6.6412,-6.6839,-6.685,-6.6859,-6.702,0,0,0,0,0,0,-6.6174,-6.6201,-6.627,-6.6286,-6.6307,-6.6484,-6.6345,-6.6338,-6.6377,-6.6362,-6.6385,-6.6383,-6.6351,-6.6486,-6.6507,-6.6603,-6.6418,-6.683,-6.6844,-6.6856,-6.7006,-6.7034,-6.7059,0,0,0,0,0,-6.6166,-6.6313,-6.6274,-6.6296,-6.6393,-6.649,-6.6502,-6.6462,-6.6385,-6.6453,-6.6449,-6.6382,-6.6581,-6.6501,-6.6523,-6.6623,-6.6824,-6.684,-6.6855,-6.6994,-6.7029,-6.7058,0,0,0,0,0,0,-6.6309,-6.6314,-6.6271,-6.6427,-6.6459,-6.6468,-6.6553,-6.65,-6.6555,-6.6539,-6.6487,-6.6494,-6.6632,-6.6641,-6.6551,-6.6798,-6.6689,-6.671,-6.6787,-6.682,-6.6846,-6.684,-6.6426,0,0,0,0,0,-6.6359,-6.6438,-6.6438,-6.6576,-6.6594,-6.6571,-6.6612,-6.6579,-6.6609,-6.6622,-6.6627,-6.6659,-6.6728,-6.6775,-6.6839,-6.7007,-6.7009,-6.7087,-6.7113,-6.7135,-6.7152,-6.724,-6.7273,-6.6914,-6.6914,-6.6913,0,0,-6.6463,-6.6475,-6.6528,-6.6605,-6.6625,-6.6707,-6.6583,-6.6675,-6.6735,-6.6636,-6.6757,-6.6762,-6.6795,-6.6944,-6.7009,-6.6955,-6.7253,-6.7154,-6.7172,-6.7178,-6.7259,-6.7293,-6.7323,-6.6924,-6.6922,-6.6921,0,0,-6.6692,-6.6711,-6.6826,-6.6849,-6.6882,-6.6866,-6.6894,-6.6911,-6.691,-6.7031,-6.6958,-6.7028,-6.715,-6.7175,-6.7204,-6.7443,-6.7383,-6.7466,-6.7603,-6.7689,-6.7717,-6.7742,-6.7825,-6.7855,-6.7484,-6.7485,-6.7485,0,-6.6816,-6.6937,-6.6892,-6.6989,-6.7024,-6.6939,-6.7055,-6.708,-6.7132,-6.7158,-6.7096,-6.7245,-6.7261,-6.7414,-6.7472,-6.7499,-6.7528,-6.7462,-6.7717,-6.7741,-6.7763,-6.7842,-6.7873,-6.7494,-6.7493,-6.7492,-6.7491,0,-6.7087,-6.7171,-6.7261,-6.7313,-6.7358,-6.7465,-6.7436,-6.7488,-6.7451,-6.7441,-6.7565,-6.7581,-6.7645,-6.768,-6.7645,-6.7827,-6.7792,-6.7725,-6.7614,-6.7808,-6.7881,-6.7911,-6.7508,-6.7504,-6.7502,-6.7499,0,0,-6.7407,-6.7433,-6.7466,-6.7487,-6.7517,-6.7581,-6.7684,-6.7747,-6.7791,-6.783,-6.7913,-6.8018,-6.7955,-6.7988,-6.7955,-6.8031,-6.8217,-6.7954,-6.7954,-6.8,-6.8416,-6.8464,-6.85,-6.8178,-6.8184,-6.8188,-6.8412,0,-6.7632,-6.7807,-6.777,-6.7942,-6.8018,-6.7938,-6.8027,-6.8055,-6.8049,-6.8113,-6.8106,-6.818,-6.8093,-6.8112,-6.8184,-6.8179,-6.8299,-6.8163,-6.8253,-6.8257,-6.8245,-6.8538,-6.859,-6.88,-6.8441,-6.8445,-6.8449,0,-6.7918,-6.7967,-6.8147,-6.8162,-6.8193,-6.8274,-6.8327,-6.839,-6.842,-6.841,-6.8447,-6.84,-6.85,-6.8391,-6.8527,-6.8435,-6.847,-6.8474,-6.8481,-6.8486,-6.8363,-6.8548,-6.8866,-6.8897,-6.8494,-6.849,-6.8487,0,-6.813,-6.8242,-6.8362,-6.8384,-6.8406,-6.8464,-6.8476,-6.85,-6.8539,-6.8587,-6.8612,-6.8671,-6.8703,-6.8749,-6.8719,-6.8642,-6.886,-6.8748,-6.8853,-6.8854,-6.89,-6.8897,-6.9226,-6.8929,-6.8928,-6.8928,-6.8927,0,-6.8384,-6.8496,-6.8457,-6.8532,-6.8654,-6.8611,-6.8734,-6.8737,-6.8758,-6.8831,-6.8767,-6.8836,-6.8793,-6.8859,-6.8837,-6.8952,-6.8968,-6.8961,-6.8953,-6.8966,-6.8966,-6.8986,-6.8969,-6.8936,-6.8934,-6.8933,-6.8931,0,-6.864,-6.8619,-6.8745,-6.8756,-6.8762,-6.8851,-6.886,-6.8929,-6.8919,-6.9012,-6.9031,-6.9015,-6.9089,-6.9064,-6.9144,-6.9129,-6.9275,-6.925,-6.9264,-6.9257,-6.9362,-6.9351,-6.9713,-6.9757,-6.9434,-6.9437,-6.944,0,-6.8802,-6.8886,-6.8906,-6.895,-6.8966,-6.9039,-6.9078,-6.904,-6.9084,-6.9124,-6.9187,-6.9256,-6.9308,-6.9431,-6.9426,-6.9487,-6.946,-6.9583,-6.9469,-6.9478,-6.9459,-6.9453,-6.946,-6.9605,-6.9609,-6.9612,-6.9614,0,-6.909,-6.9075,-6.9135,-6.9192,-6.9242,-6.9285,-6.9322,-6.9361,-6.9325,-6.9378,-6.9453,-6.9494,-6.9575,-6.9643,-6.9698,-6.971,-6.9656,-6.9651,-6.9677,-6.9689,-6.9693,-6.9689,-6.9323,-6.9642,-6.9639,-6.9637,-6.9635,-6.9634,-6.9302,-6.9372,-6.9397,-6.9465,-6.9489,-6.9525,-6.9589,-6.9587,-6.9649,-6.9712,-6.9686,-6.9772,-6.9798,-6.9866,-6.9886,-6.9952,-6.9904,-6.9944,-6.9954,-6.9963,-6.9975,-6.9685,-6.9962,-6.9961,-6.9961,-6.996,-6.9959,0,-6.9584,-6.9596,-6.966,-6.9713,-6.9767,-6.9713,-6.9751,-6.9799,-6.9875,-6.9905,-6.9958,-7.0044,-7.011,-7.011,-7.0172,-7.0224,-7.0201,-7.0242,-7.0236,-7.0239,-7.0016,-6.9985,-7.0259,-7.0259,-7.0259,-7.0259,-7.0259,-7.0259,-6.9737,-6.9852,-6.984,-6.9966,-6.9977,-7.0061,-7.0087,-7.0119,-7.0142,-7.0241,-7.0295,-7.0295,-7.0313,-7.0375,-7.0433,-7.0431,-7.0455,-7.0505,-7.0494,-7.0285,-7.0255,-7.0226,-7.0197,-7.0511,-7.0511,-7.071,-7.0712,-7.0714]},{"header":{"parameterUnit":"m.s-1","parameterCategory":1,"la1":30.2991,"la2":30.254,"lo1":-89.0895,"lo2":-89.0444,"dy":0.0017,"dx":0.0017,"nx":28,"ny":28,"refTime":"2024-12-25T09:00:00:Z","depth":0,"parameterNumber":3,"parameterNumberName":"V-component_of_WINDS"},"data":[0,0,0,0,0,0,0,0,0,0,0,0,0,0,0,0,0,0,0,0,0,0,0,0,0,0,0,0,0,0,0,0,0,0,0,0,0,0,0,0,0,0,0,0,0,0,0,0,0,0,0,0,0,0,0,0,0,0,0.7744,0.7744,0,0.7765,0.7765,0.7765,0.7786,0.7787,0.7787,0.7787,0.7803,0.7804,0.7804,0,0,0,0,0,0,0,0,0,0,0,0,0,0.7718,0.7718,0.7744,0.7744,0.7744,0.7765,0.7765,0.7765,0.7786,0.7787,0.7787,0.7787,0.7803,0.7804,0.7804,0,0,0,0,0,0,0,0,0,0,0,0,0,0.7733,0.7718,0.7744,0.7757,0.7759,0.7765,0.7765,0.7766,0.7786,0.7787,0.7787,0.7787,0.7803,0.7804,0.7804,0.7797,0,0,0.7805,0.7805,0,0,0,0,0,0,0,0,0.7732,0.7734,0.7755,0.7756,0.7758,0.7774,0.7762,0.7776,0.7786,0.7776,0.7787,0.7788,0.7793,0.7794,0.7797,0.7797,0.7798,0.7805,0.7805,0.7805,0.7805,0,0,0,0,0,0,0,0.7731,0.7733,0.7752,0.7755,0.7757,0.7761,0.7764,0.7765,0.7781,0.7776,0.7778,0.7781,0.7794,0.7797,0.7797,0.7798,0.7805,0.7805,0.7805,0.7805,0.7796,0.7796,0,0,0,0,0,0,0.7728,0.7732,0.7751,0.7753,0.7746,0.7761,0.7764,0.7768,0.7781,0.7784,0.778,0.7782,0.7796,0.7797,0.7798,0.7792,0.7805,0.7805,0.7805,0.7797,0.7796,0.7796,0,0,0,0,0,0,0.7728,0.773,0.775,0.7743,0.7746,0.7761,0.7765,0.7768,0.7771,0.7784,0.7787,0.778,0.7796,0.7798,0.7798,0.7793,0.7805,0.7805,0.7797,0.7797,0.7796,0.7779,0,0,0,0,0,0,0.7727,0.7729,0.7727,0.7743,0.7746,0.7751,0.7765,0.7768,0.7772,0.7774,0.7785,0.7787,0.7797,0.7797,0.7798,0.7793,0.7806,0.7798,0.7797,0.7796,0.778,0.7778,0.7776,0,0,0,0,0,0.7726,0.772,0.7727,0.7729,0.7744,0.775,0.7752,0.7765,0.7772,0.777,0.7778,0.7787,0.7793,0.7797,0.7798,0.7793,0.7798,0.7797,0.7796,0.7781,0.7778,0.7776,0,0,0,0,0,0,0.7701,0.7722,0.773,0.773,0.7739,0.7754,0.7752,0.7761,0.7767,0.7768,0.7782,0.7784,0.7783,0.7788,0.7792,0.7788,0.7797,0.7796,0.7785,0.7783,0.7781,0.7779,0.7806,0,0,0,0,0,0.7696,0.7701,0.7718,0.7716,0.772,0.7735,0.7738,0.7748,0.7757,0.776,0.7768,0.7775,0.7779,0.7781,0.7785,0.7781,0.7784,0.7779,0.7777,0.7775,0.7774,0.7774,0.7772,0.7793,0.7793,0.7793,0,0,0.7685,0.7697,0.7699,0.7712,0.772,0.7724,0.7738,0.7741,0.7744,0.7759,0.7761,0.7768,0.7776,0.7775,0.7775,0.7779,0.7769,0.7774,0.7772,0.7772,0.7773,0.7771,0.7769,0.7793,0.7793,0.7793,0,0,0.7667,0.7676,0.7677,0.7685,0.7698,0.7708,0.7708,0.7723,0.7729,0.7732,0.7744,0.7747,0.7753,0.7759,0.7763,0.7751,0.7759,0.7751,0.7741,0.774,0.7739,0.7737,0.7734,0.7732,0.775,0.775,0.775,0,0.7651,0.7659,0.7675,0.7678,0.7684,0.7701,0.7701,0.7708,0.772,0.7723,0.7729,0.7739,0.7745,0.7747,0.7744,0.7746,0.7747,0.775,0.7738,0.7737,0.7736,0.7732,0.7731,0.7749,0.7749,0.775,0.775,0,0.7639,0.7644,0.7643,0.7658,0.7663,0.7664,0.768,0.7683,0.7693,0.7703,0.7705,0.7715,0.7722,0.7723,0.7731,0.7726,0.7728,0.7736,0.7745,0.7732,0.773,0.7728,0.7748,0.7748,0.7749,0.7749,0,0,0.7604,0.7631,0.763,0.7638,0.7654,0.7658,0.7661,0.767,0.7673,0.7681,0.7684,0.769,0.7698,0.7703,0.7711,0.7711,0.7702,0.7719,0.7719,0.7716,0.7699,0.7693,0.7692,0.7708,0.7708,0.7708,0.7698,0,0.7589,0.7597,0.7613,0.7615,0.7621,0.7639,0.7641,0.7651,0.7661,0.7666,0.7676,0.768,0.769,0.7693,0.7694,0.7703,0.7699,0.7704,0.771,0.771,0.7708,0.769,0.7684,0.7674,0.7697,0.7697,0.7697,0,0.7572,0.7583,0.7587,0.7606,0.7609,0.7611,0.7622,0.7627,0.7639,0.7646,0.7653,0.7664,0.7667,0.7676,0.768,0.7684,0.7687,0.7693,0.7692,0.7693,0.7703,0.7691,0.7671,0.767,0.7695,0.7695,0.7695,0,0.7548,0.7563,0.7568,0.7574,0.7596,0.7597,0.7606,0.7618,0.7624,0.7633,0.7637,0.7645,0.765,0.7656,0.7669,0.7674,0.7673,0.7682,0.7678,0.7678,0.7677,0.7677,0.7658,0.7678,0.7678,0.7678,0.7678,0,0.753,0.7532,0.7558,0.7561,0.7563,0.7582,0.7583,0.7593,0.7605,0.761,0.7625,0.7628,0.7645,0.7651,0.7661,0.7664,0.7665,0.7671,0.7673,0.767,0.7669,0.7672,0.7673,0.7678,0.7678,0.7678,0.7678,0,0.7503,0.752,0.7527,0.7548,0.7554,0.7555,0.7572,0.7576,0.7587,0.7593,0.7595,0.7613,0.762,0.7634,0.7645,0.7652,0.7653,0.7657,0.7649,0.7651,0.7647,0.7647,0.7629,0.7628,0.7649,0.7649,0.7649,0,0.749,0.7493,0.7515,0.7521,0.753,0.7538,0.7545,0.7563,0.7569,0.7584,0.7585,0.7595,0.7603,0.7615,0.7627,0.7636,0.7641,0.7634,0.7642,0.7639,0.7642,0.7642,0.7642,0.7632,0.7632,0.7631,0.7631,0,0.7466,0.7476,0.7486,0.75,0.7508,0.7519,0.753,0.7534,0.7554,0.756,0.757,0.7577,0.7589,0.7598,0.761,0.7617,0.7628,0.7629,0.7629,0.7625,0.7621,0.7624,0.7645,0.7629,0.7629,0.7629,0.763,0.763,0.7447,0.745,0.7468,0.7479,0.749,0.7502,0.7507,0.752,0.7529,0.7542,0.7552,0.7561,0.7574,0.7591,0.7598,0.7605,0.761,0.7609,0.7609,0.7608,0.7607,0.762,0.7607,0.7607,0.7607,0.7607,0.7607,0,0.7424,0.7437,0.7448,0.7465,0.7474,0.7486,0.75,0.7506,0.7515,0.7527,0.7536,0.7548,0.7558,0.7572,0.7583,0.7585,0.7591,0.7588,0.7587,0.7589,0.7602,0.7602,0.7583,0.7583,0.7583,0.7583,0.7583,0.7583,0.7414,0.7422,0.7433,0.7447,0.7459,0.747,0.7477,0.7488,0.7498,0.7511,0.7521,0.7531,0.7545,0.7557,0.7566,0.757,0.7573,0.7569,0.7574,0.7586,0.7588,0.759,0.759,0.757,0.757,0.7561,0.7561,0.7561]}]]